EUTELSAT KA-SAT 9A

Last updated on Sun Apr 12 2026 00:02:52 GMT+0000 (Coordinated Universal Time)

1 37258U 10069A 26101.30855616 .00000063 00000+0 00000+0 0 9992 2 37258 0.0604 2.6843 0003491 137.2244 179.7020 1.00273187 43338
UTC large
Height (km)
Speed (km/s)
/
Latitude / Longitude
Inclination (degrees)
Orbital Period (minutes)
Azimuth
Elevation
Range (km)
Doppler Factor

Next 0 passes for location: London (51.5072 / 0.1276)

Sorry there are no passes over London.
EUTELSAT KA-SAT 9A